Location: Alto Pass Reservoir
(37.5801°N, 89.3084°W)
Time: 19:35:31
(UTC+00:00)

Cosmos 2298 Rocket - Pass Details

Date: 08 December 2021
Orbit: 775 x 784 km, 74.0° (Epoch: 16 January)

Event Time Altitude Azimuth Distance (km) Brightness Sun altitude
Rises 23:32:27 0° 349° (N) 3,274 7.2 -10.5°
Reaches altitude 10° 23:35:01 10° 358° (N) 2,344 6.3 -11.0°
Maximum altitude 23:39:58 38° 66° (ENE) 1,174 4.5 -11.9°
Drops below altitude 10° 23:44:54 10° 135° (SE) 2,334 6.2 -12.8°
Sets 23:47:26 0° 143° (SE) 3,259 7.1 -13.3°
